• In Uzbekistan
  • List of Countries
  • For 7 days
  • Water Temperature
  • Satellite Maps
  • Weather Map
  • Weather Widgets
  • user-avatar
    Login

    Hourly Weather Wafra

    Today, 11 December, Monday

    Time Temperature Precipitation Wind Pressure Humidity
    00:00 +11°C° 0 mm 4 mps 754 mmHg 20%
    01:00 +11°C° 0 mm 4 mps 753 mmHg 20%
    02:00 +11°C° 0 mm 4 mps 753 mmHg 21%
    03:00 +10°C° 0 mm 4 mps 753 mmHg 24%
    04:00 +10°C° 0 mm 4 mps 753 mmHg 24%
    05:00 +10°C° 0 mm 4 mps 754 mmHg 24%
    06:00 +10°C° 0 mm 4 mps 754 mmHg 24%
    07:00 +11°C° 0 mm 4 mps 754 mmHg 22%
    08:00 +12°C° 0 mm 5 mps 754 mmHg 20%
    09:00 +13°C° 0 mm 5 mps 754 mmHg 18%
    10:00 +15°C° 0 mm 5 mps 754 mmHg 16%
    11:00 +16°C° 0 mm 5 mps 754 mmHg 13%
    12:00 +19°C° 0 mm 5 mps 754 mmHg 11%
    13:00 +20°C° 0 mm 5 mps 753 mmHg 10%
    14:00 +20°C° 0 mm 5 mps 753 mmHg 9%
    15:00 +21°C° 0 mm 5 mps 752 mmHg 9%
    16:00 +19°C° 0 mm 4 mps 752 mmHg 10%
    17:00 +18°C° 0 mm 4 mps 753 mmHg 11%
    18:00 +17°C° 0 mm 4 mps 753 mmHg 12%
    19:00 +15°C° 0 mm 4 mps 753 mmHg 13%
    20:00 +15°C° 0 mm 4 mps 753 mmHg 13%
    21:00 +14°C° 0 mm 4 mps 753 mmHg 13%
    22:00 +14°C° 0 mm 5 mps 753 mmHg 14%
    23:00 +14°C° 0 mm 5 mps 752 mmHg 14%

    Tomorrow, 12 December, Tuesday

    Time Temperature Precipitation Wind Pressure Humidity
    00:00 +13°C° 0 mm 5 mps 752 mmHg 14%
    01:00 +13°C° 0 mm 5 mps 752 mmHg 15%
    02:00 +13°C° 0 mm 6 mps 752 mmHg 16%
    03:00 +11°C° 0 mm 6 mps 752 mmHg 17%
    04:00 +11°C° 0 mm 6 mps 752 mmHg 19%
    05:00 +10°C° 0 mm 6 mps 752 mmHg 21%
    06:00 +10°C° 0 mm 6 mps 752 mmHg 23%
    07:00 +11°C° 0 mm 7 mps 752 mmHg 22%
    08:00 +12°C° 0 mm 8 mps 753 mmHg 21%
    09:00 +13°C° 0 mm 8 mps 753 mmHg 20%
    10:00 +16°C° 0 mm 8 mps 753 mmHg 19%
    11:00 +17°C° 0 mm 8 mps 752 mmHg 17%
    12:00 +20°C° 0 mm 8 mps 752 mmHg 15%
    13:00 +20°C° 0 mm 8 mps 752 mmHg 15%
    14:00 +21°C° 0 mm 8 mps 751 mmHg 15%
    15:00 +21°C° 0 mm 8 mps 751 mmHg 16%
    16:00 +20°C° 0 mm 7 mps 751 mmHg 17%
    17:00 +19°C° 0 mm 6 mps 751 mmHg 19%
    18:00 +16°C° 0 mm 5 mps 751 mmHg 21%
    19:00 +16°C° 0 mm 5 mps 751 mmHg 22%
    20:00 +15°C° 0 mm 5 mps 751 mmHg 22%
    21:00 +15°C° 0 mm 5 mps 752 mmHg 23%
    22:00 +14°C° 0 mm 5 mps 752 mmHg 24%
    23:00 +14°C° 0 mm 5 mps 751 mmHg 25%

    Day after tomorrow, 13 December, Wednesday

    Time Temperature Precipitation Wind Pressure Humidity
    00:00 +13°C° 0 mm 5 mps 751 mmHg 25%
    01:00 +13°C° 0 mm 5 mps 751 mmHg 26%
    02:00 +13°C° 0 mm 5 mps 751 mmHg 27%
    03:00 +12°C° 0 mm 5 mps 751 mmHg 29%
    04:00 +12°C° 0 mm 4 mps 751 mmHg 29%
    05:00 +12°C° 0 mm 4 mps 751 mmHg 30%
    06:00 +11°C° 0 mm 4 mps 751 mmHg 31%
    07:00 +12°C° 0 mm 4 mps 751 mmHg 29%
    08:00 +13°C° 0 mm 4 mps 752 mmHg 27%
    09:00 +15°C° 0 mm 4 mps 752 mmHg 25%
    10:00 +17°C° 0 mm 3 mps 751 mmHg 23%
    11:00 +18°C° 0 mm 3 mps 751 mmHg 20%
    12:00 +20°C° 0 mm 3 mps 750 mmHg 18%
    13:00 +20°C° 0 mm 2 mps 750 mmHg 17%
    14:00 +21°C° 0 mm 2 mps 750 mmHg 16%
    15:00 +22°C° 0 mm 1 mps 749 mmHg 15%
    16:00 +21°C° 0 mm 1 mps 749 mmHg 17%
    17:00 +20°C° 0 mm 1 mps 749 mmHg 19%
    18:00 +19°C° 0 mm 1 mps 749 mmHg 21%
    19:00 +17°C° 0 mm 2 mps 749 mmHg 22%
    20:00 +17°C° 0 mm 2 mps 749 mmHg 24%
    21:00 +17°C° 0 mm 3 mps 749 mmHg 26%
    22:00 +16°C° 0 mm 3 mps 749 mmHg 25%
    23:00 +16°C° 0 mm 3 mps 748 mmHg 25%

    14 December, Thursday

    Time Temperature Precipitation Wind Pressure Humidity
    00:00 +16°C° 0 mm 3 mps 748 mmHg 25%
    01:00 +14°C° 0 mm 3 mps 748 mmHg 24%
    02:00 +14°C° 0 mm 3 mps 748 mmHg 23%
    03:00 +14°C° 0 mm 3 mps 748 mmHg 22%
    04:00 +14°C° 0 mm 3 mps 748 mmHg 22%
    05:00 +14°C° 0 mm 3 mps 748 mmHg 22%
    06:00 +14°C° 0 mm 3 mps 748 mmHg 22%
    07:00 +16°C° 0 mm 3 mps 748 mmHg 20%
    08:00 +17°C° 0 mm 3 mps 748 mmHg 19%
    09:00 +18°C° 0 mm 4 mps 749 mmHg 18%
    10:00 +19°C° 0 mm 4 mps 748 mmHg 16%
    11:00 +20°C° 0 mm 4 mps 748 mmHg 14%
    12:00 +22°C° 0 mm 5 mps 747 mmHg 12%
    13:00 +22°C° 0 mm 5 mps 747 mmHg 12%
    14:00 +22°C° 0 mm 5 mps 746 mmHg 11%
    15:00 +23°C° 0 mm 5 mps 746 mmHg 11%
    16:00 +21°C° 0 mm 4 mps 746 mmHg 13%
    17:00 +20°C° 0 mm 4 mps 746 mmHg 15%
    18:00 +19°C° 0 mm 4 mps 746 mmHg 17%
    19:00 +18°C° 0 mm 3 mps 746 mmHg 19%
    20:00 +17°C° 0 mm 3 mps 746 mmHg 20%
    21:00 +17°C° 0 mm 3 mps 747 mmHg 22%
    22:00 +16°C° 0 mm 2 mps 746 mmHg 23%
    23:00 +15°C° 0 mm 2 mps 746 mmHg 25%

    15 December, Friday

    Time Temperature Precipitation Wind Pressure Humidity
    00:00 +15°C° 0 mm 2 mps 746 mmHg 27%
    01:00 +14°C° 0 mm 2 mps 746 mmHg 28%
    02:00 +14°C° 0 mm 2 mps 746 mmHg 30%
    03:00 +14°C° 0 mm 2 mps 745 mmHg 32%
    04:00 +14°C° 0 mm 3 mps 746 mmHg 35%
    05:00 +14°C° 0 mm 3 mps 746 mmHg 38%
    06:00 +14°C° 0 mm 4 mps 746 mmHg 40%
    07:00 +15°C° 0 mm 4 mps 747 mmHg 43%
    08:00 +16°C° 0 mm 5 mps 747 mmHg 46%
    09:00 +17°C° 0 mm 5 mps 748 mmHg 48%
    10:00 +19°C° 0 mm 5 mps 747 mmHg 47%
    11:00 +21°C° 0 mm 5 mps 747 mmHg 45%
    12:00 +22°C° 0 mm 5 mps 747 mmHg 44%
    13:00 +22°C° 0 mm 5 mps 747 mmHg 42%
    14:00 +22°C° 0 mm 5 mps 746 mmHg 41%
    15:00 +23°C° 0 mm 5 mps 746 mmHg 39%
    16:00 +22°C° 0 mm 4 mps 746 mmHg 43%
    17:00 +21°C° 0 mm 4 mps 747 mmHg 46%
    18:00 +20°C° 0 mm 4 mps 747 mmHg 49%
    19:00 +19°C° 0 mm 4 mps 747 mmHg 49%
    20:00 +19°C° 0 mm 4 mps 748 mmHg 48%
    21:00 +17°C° 0 mm 5 mps 748 mmHg 48%
    22:00 +17°C° 0 mm 5 mps 748 mmHg 48%
    23:00 +17°C° 0 mm 5 mps 748 mmHg 47%

    16 December, Saturday

    Time Temperature Precipitation Wind Pressure Humidity
    00:00 +16°C° 0 mm 5 mps 748 mmHg 47%
    01:00 +16°C° 0 mm 5 mps 748 mmHg 47%
    02:00 +15°C° 0 mm 6 mps 748 mmHg 46%
    03:00 +15°C° 0 mm 6 mps 748 mmHg 46%
    04:00 +15°C° 0 mm 6 mps 748 mmHg 44%
    05:00 +14°C° 0 mm 6 mps 748 mmHg 43%
    06:00 +14°C° 0 mm 6 mps 748 mmHg 42%
    07:00 +15°C° 0 mm 6 mps 749 mmHg 41%
    08:00 +16°C° 0 mm 6 mps 749 mmHg 41%
    09:00 +16°C° 0 mm 6 mps 750 mmHg 40%
    10:00 +19°C° 0.1 mm 6 mps 749 mmHg 42%
    11:00 +20°C° 0.1 mm 6 mps 749 mmHg 43%
    12:00 +21°C° 0.1 mm 5 mps 749 mmHg 44%
    13:00 +21°C° 0 mm 5 mps 748 mmHg 43%
    14:00 +21°C° 0 mm 5 mps 748 mmHg 42%
    15:00 +22°C° 0 mm 5 mps 748 mmHg 41%
    16:00 +21°C° 0 mm 4 mps 748 mmHg 44%
    17:00 +20°C° 0 mm 4 mps 748 mmHg 48%
    18:00 +19°C° 0 mm 3 mps 749 mmHg 51%
    19:00 +19°C° 0 mm 3 mps 749 mmHg 53%
    20:00 +18°C° 0 mm 3 mps 749 mmHg 55%
    21:00 +18°C° 0 mm 3 mps 749 mmHg 56%
    22:00 +17°C° 0 mm 3 mps 749 mmHg 56%
    23:00 +17°C° 0 mm 3 mps 749 mmHg 55%
    Show more